Retour au catalogue

COSMOS 2098

ActifMilitairePO
NORAD 20774·PAYLOAD·🇷🇺 Russia

Lancé Aug 28, 1990 depuis Plesetsk Cosmodrome

Loading…

Prochains Passages (prochaines 24 heures)

TLE

FraisSource: Space-Track

Époque: Sep 14, 2026, 14:09 UTC

1 20774U 90078A   26257.58971491  .00001726  00000-0  12157-3 0  9995
2 20774  82.9430  12.1132 0740863 321.7624  33.3123 13.90655536784941

Suivez COSMOS 2098 en temps réel avec AllMySat

Download on the App Store